Powrót do katalogu

SL-16 DEB

AktywnyLEO
NORAD 22410·DEBRIS·🇷🇺 Russia

Wystrzelony Dec 25, 1992 z Baikonur Cosmodrome

Loading…

Następne Przeloty (najbliższe 24 godziny)

TLE

ŚwieżeSource: Space-Track

Epoka: Sep 14, 2026, 04:16 UTC

1 22410U 92093DB  26257.17819360  .00000118  00000-0  11065-3 0  9995
2 22410  71.0856 168.0046 0108889 224.5429 286.7050 13.97392969714250

Śledź SL-16 DEB w czasie rzeczywistym z AllMySat

Download on the App Store